EW5171 Weather Reports


time (UTC)temp
F
wind
direction
speed
knots
gust
knots
rain 1hr
in
rain 24hr
in
rain mn
in
humidity
%
barometer
mb
20260902065051 61 216 0.9 4.3 0.00 0.06 0.02 94 1013.3
20260902064549 61 179 0.9 5.2 0.00 0.06 0.02 95 1013.4
20260902064048 60 197 0.9 5.2 0.00 0.06 0.02 95 1013.4
20260902063549 60 190 0.9 3.5 0.00 0.06 0.02 95 1013.4
20260902063055 60 155 0.9 3.5 0.00 0.06 0.02 95 1013.4
20260902062546 60 285 0.9 4.3 0.00 0.06 0.02 95 1013.4
20260902062046 59 247 1.7 5.2 0.00 0.06 0.02 95 1013.4
20260902061601 59 320 0.9 5.2 0.00 0.06 0.02 95 1013.4
20260902061048 59 228 0.9 3.5 0.00 0.06 0.02 95 1013.4
20260902060541 59 230 0.0 4.3 0.00 0.06 0.02 95 1013.5
20260902060043 59 202 1.7 4.3 0.00 0.06 0.02 95 1013.5
20260902055540 59 193 0.0 3.5 0.00 0.06 0.02 95 1013.5
20260902055039 59 292 0.9 3.5 0.00 0.06 0.02 95 1013.5
20260902054540 59 190 0.9 3.5 0.00 0.06 0.02 95 1013.5
20260902054039 59 196 0.9 3.5 0.00 0.06 0.02 95 1013.5
20260902053539 59 257 0.0 2.6 0.00 0.06 0.02 96 1013.5
20260902053040 59 217 0.0 3.5 0.00 0.06 0.02 95 1013.5
20260902052538 59 327 0.0 3.5 0.00 0.06 0.02 96 1013.4
20260902052036 58 194 1.7 4.3 0.00 0.06 0.02 96 1013.4
20260902051553 58 288 0.9 4.3 0.00 0.06 0.02 96 1013.4
20260902051034 58 290 0.9 4.3 0.00 0.06 0.02 95 1013.4
20260902050532 58 270 0.0 4.3 0.00 0.06 0.02 96 1013.3
20260902050033 58 283 0.9 4.3 0.00 0.06 0.02 95 1013.3
20260902045531 58 298 0.9 5.2 0.00 0.06 0.02 95 1013.3
20260902045031 58 195 0.9 2.6 0.00 0.06 0.02 95 1013.2
20260902044558 58 259 0.0 3.5 0.00 0.06 0.02 95 1013.2
20260902044032 58 211 0.9 3.5 0.00 0.06 0.02 95 1013.2
20260902043529 57 255 0.0 2.6 0.00 0.06 0.02 95 1013.2
20260902043031 57 279 0.0 2.6 0.00 0.06 0.02 95 1013.2
20260902042527 57 175 0.0 3.5 0.00 0.06 0.02 95 1013.2
20260902042028 57 190 0.9 3.5 0.00 0.06 0.02 95 1013.2
20260902041532 57 219 0.0 2.6 0.00 0.06 0.02 95 1013.3
20260902041025 57 295 0.0 2.6 0.00 0.06 0.02 95 1013.3
20260902040525 57 205 0.0 3.5 0.00 0.06 0.02 95 1013.3
20260902040028 57 203 0.9 3.5 0.00 0.06 0.02 95 1013.3
20260902035525 57 198 0.9 1.7 0.00 0.06 0.02 95 1013.4
20260902035027 57 213 0.0 1.7 0.01 0.06 0.02 95 1013.4
20260902034524 57 213 0.0 3.5 0.01 0.06 0.02 95 1013.4
20260902034022 57 296 0.0 3.5 0.01 0.06 0.02 95 1013.4
20260902033522 57 315 0.0 2.6 0.01 0.06 0.02 95 1013.4
20260902033022 57 185 0.9 2.6 0.01 0.06 0.02 95 1013.4
20260902032526 57 260 0.0 2.6 0.01 0.06 0.02 95 1013.5
20260902032020 57 202 0.0 3.5 0.01 0.06 0.02 95 1013.4
20260902031538 57 227 0.9 3.5 0.01 0.06 0.02 95 1013.4
20260902031019 57 233 0.0 3.5 0.01 0.06 0.02 95 1013.5
20260902030522 57 230 0.0 4.3 0.01 0.06 0.02 95 1013.6
20260902030018 56 213 0.0 4.3 0.01 0.06 0.02 95 1013.7
20260902025518 56 237 0.0 1.7 0.01 0.07 0.02 94 1013.7
20260902025018 56 237 0.0 2.6 0.00 0.06 0.01 95 1013.7
20260902024518 57 237 0.0 2.6 0.00 0.06 0.01 95 1013.8
20260902024017 57 151 0.9 3.5 0.00 0.06 0.01 95 1013.7
20260902023517 57 165 0.9 3.5 0.00 0.06 0.01 95 1013.7
20260902023022 57 209 0.0 4.3 0.00 0.06 0.01 95 1013.7
20260902022516 56 290 1.7 5.2 0.00 0.06 0.01 95 1013.6
20260902022016 56 304 0.9 3.5 0.00 0.06 0.01 95 1013.7
20260902021514 56 263 0.9 3.5 0.00 0.06 0.01 96 1013.7
20260902021014 56 185 0.0 3.5 0.00 0.06 0.01 95 1013.8
20260902020515 56 238 0.9 3.5 0.00 0.06 0.01 96 1013.8
20260902020013 56 238 0.9 3.5 0.00 0.06 0.01 96 1013.8
20260902015514 55 172 0.0 2.6 0.00 0.06 0.01 95 1013.9
20260902015013 55 219 0.0 3.5 0.00 0.06 0.01 95 1013.8
20260902014515 55 198 0.9 3.5 0.00 0.06 0.01 96 1013.8
20260902014012 55 188 0.0 3.5 0.00 0.06 0.01 95 1013.8
20260902013511 54 245 0.9 3.5 0.00 0.06 0.01 95 1013.8
20260902013013 54 192 0.0 1.7 0.00 0.06 0.01 95 1013.9
20260902012511 54 192 0.0 1.7 0.00 0.06 0.01 95 1013.8
20260902012010 54 214 0.0 1.7 0.00 0.06 0.01 95 1013.9
20260902011516 54 214 0.0 1.7 0.00 0.06 0.01 95 1013.9
20260902011010 54 261 0.0 2.6 0.00 0.06 0.01 95 1013.9
20260902010510 53 281 0.0 2.6 0.00 0.06 0.01 95 1013.9
20260902010009 53 232 0.0 1.7 0.00 0.06 0.01 95 1014.0
20260902005509 53 232 0.0 1.7 0.00 0.06 0.01 95 1014.0
20260902005009 53 232 0.0 2.6 0.00 0.06 0.01 95 1014.0
20260902004508 53 223 0.0 0.9 0.00 0.06 0.01 94 1014.0
20260902004007 52 219 0.0 2.6 0.00 0.06 0.01 94 1014.1
20260902003510 52 219 0.0 2.6 0.00 0.06 0.01 94 1014.1
20260902003007 52 207 0.0 0.9 0.00 0.06 0.01 94 1014.1
20260902002509 52 186 0.0 0.0 0.00 0.06 0.01 93 1014.1
20260902002007 52 186 0.0 0.0 0.00 0.06 0.01 93 1014.2
20260902001506 52 186 0.0 0.0 0.00 0.06 0.01 93 1014.2
20260902001003 52 186 0.0 0.0 0.00 0.06 0.01 93 1014.2
20260902000503 52 186 0.0 0.0 0.00 0.06 0.01 93 1014.2
20260902000007 53 186 0.0 0.0 0.00 0.06 0.01 93 1014.2
20260901235501 53 186 0.0 0.0 0.00 0.07 0.01 93 1014.3
20260901235000 53 186 0.0 0.0 0.00 0.07 0.01 92 1014.3
20260901234608 53 186 0.0 0.0 0.00 0.07 0.01 92 1014.3
20260901234104 53 186 0.0 0.0 0.00 0.07 0.01 92 1014.2
20260901233558 54 186 0.0 0.9 0.00 0.07 0.01 92 1014.3
20260901233057 54 186 0.0 0.9 0.00 0.07 0.01 92 1014.3
20260901232557 54 186 0.0 1.7 0.01 0.07 0.01 93 1014.3
20260901232059 54 186 0.0 1.7 0.01 0.07 0.01 92 1014.4
20260901231605 54 269 0.0 1.7 0.01 0.07 0.01 92 1014.4
20260901231054 54 113 0.0 2.6 0.01 0.07 0.01 92 1014.5
20260901230555 54 246 0.0 1.7 0.01 0.07 0.01 92 1014.5
20260901230106 54 274 0.0 1.7 0.01 0.07 0.01 92 1014.5
20260901225553 55 247 0.0 2.6 0.01 0.07 0.01 92 1014.5
20260901225053 55 188 0.9 2.6 0.01 0.07 0.01 92 1014.4
20260901224554 55 276 0.0 3.5 0.01 0.07 0.01 91 1014.4
20260901224058 55 286 0.0 5.2 0.01 0.07 0.01 92 1014.5
20260901223556 55 313 0.9 2.6 0.01 0.07 0.01 91 1014.6
20260901223051 55 298 0.0 3.5 0.01 0.07 0.01 91 1014.5
20260901222551 55 320 0.9 4.3 0.00 0.06 0.00 91 1014.5
20260901222050 55 218 0.0 4.3 0.00 0.06 0.00 91 1014.4
20260901221604 56 307 0.9 1.7 0.00 0.06 0.00 91 1014.4
20260901221048 56 206 0.0 3.5 0.00 0.06 0.00 91 1014.3
20260901220548 56 272 0.0 6.1 0.00 0.06 0.00 91 1014.3
20260901220045 56 225 0.9 6.1 0.00 0.06 0.00 90 1014.3
20260901215545 56 279 0.9 5.2 0.00 0.06 0.06 91 1014.3
20260901215045 56 286 0.9 7.0 0.00 0.06 0.06 91 1014.3
20260901214544 56 278 2.6 7.0 0.00 0.06 0.06 91 1014.4
20260901214045 56 261 2.6 7.0 0.00 0.06 0.06 91 1014.4
20260901213546 57 322 0.9 7.8 0.00 0.06 0.06 91 1014.4
20260901213048 57 182 2.6 8.7 0.00 0.06 0.06 91 1014.4
20260901212643 57 240 0.9 8.7 0.00 0.06 0.06 91 1014.4
20260901212043 57 273 0.9 2.6 0.00 0.06 0.06 91 1014.3
20260901211543 57 177 0.0 3.5 0.00 0.06 0.06 91 1014.3
20260901211042 57 296 0.0 3.5 0.00 0.06 0.06 91 1014.3
20260901210545 57 286 0.9 4.3 0.00 0.06 0.06 91 1014.2
20260901210042 57 355 0.9 4.3 0.00 0.06 0.06 91 1014.2
20260901205543 57 308 0.0 6.1 0.00 0.06 0.06 91 1014.2
20260901205040 57 213 1.7 6.1 0.00 0.06 0.06 92 1014.2
20260901204541 57 279 0.9 3.5 0.00 0.06 0.06 91 1014.1
20260901204043 57 223 0.9 2.6 0.00 0.06 0.06 91 1014.1
20260901203543 57 299 0.0 2.6 0.00 0.06 0.06 91 1014.1
20260901203045 56 292 0.0 2.6 0.00 0.06 0.06 91 1014.1
20260901202538 56 288 0.0 1.7 0.00 0.06 0.06 90 1014.0
20260901202041 57 297 0.0 1.7 0.00 0.06 0.06 90 1014.0
20260901201545 57 169 0.0 1.7 0.00 0.06 0.06 90 1014.0
20260901201039 57 261 0.0 0.9 0.00 0.06 0.06 89 1014.0
20260901200537 57 261 0.0 0.9 0.00 0.06 0.06 89 1014.0
20260901200037 57 261 0.0 1.7 0.00 0.06 0.06 89 1014.0
20260901195537 58 261 0.0 1.7 0.00 0.06 0.06 89 1013.9
20260901195039 58 265 0.0 2.6 0.00 0.06 0.06 89 1013.9
20260901194536 58 136 0.9 2.6 0.00 0.06 0.06 88 1013.9
20260901194036 58 222 0.0 2.6 0.00 0.06 0.06 88 1013.9
20260901193536 58 222 0.0 2.6 0.00 0.06 0.06 88 1013.9
20260901193035 58 253 0.0 0.9 0.00 0.06 0.06 87 1013.9
20260901192537 58 254 0.0 1.7 0.00 0.06 0.06 87 1013.8
20260901192035 59 264 0.0 1.7 0.00 0.06 0.06 87 1013.7
20260901191541 59 264 0.0 1.7 0.00 0.06 0.06 86 1013.7
20260901191034 59 264 0.0 1.7 0.00 0.06 0.06 86 1013.7
20260901190533 59 264 0.0 1.7 0.00 0.06 0.06 85 1013.7
20260901190037 60 264 0.0 1.7 0.00 0.06 0.06 85 1013.7
20260901185532 60 264 0.0 1.7 0.00 0.06 0.06 85 1013.6
20260901185031 60 267 0.0 1.7 0.00 0.06 0.06 84 1013.6
20260901184531 61 285 0.0 3.5 0.00 0.06 0.06 83 1013.5
20260901184033 61 285 0.0 3.5 0.00 0.06 0.06 83 1013.4
20260901183533 61 263 0.0 2.6 0.00 0.06 0.06 82 1013.4
20260901183055 61 267 0.9 2.6 0.00 0.06 0.06 82 1013.4
20260901182530 61 269 0.0 2.6 0.00 0.06 0.06 81 1013.3
20260901182030 62 166 0.0 7.0 0.00 0.06 0.06 81 1013.3
20260901181529 62 270 1.7 6.1 0.00 0.06 0.06 81 1013.3
20260901181028 62 287 1.7 6.1 0.00 0.06 0.06 80 1013.2
20260901180528 62 209 0.0 4.3 0.00 0.06 0.06 80 1013.2
20260901180028 62 312 1.7 4.3 0.00 0.06 0.06 79 1013.1
20260901175526 62 264 0.9 3.5 0.00 0.06 0.06 79 1013.1
20260901175027 62 148 0.9 3.5 0.00 0.06 0.06 79 1013.1
20260901174527 62 101 0.0 4.3 0.00 0.06 0.06 79 1013.0
20260901174027 62 269 0.9 4.3 0.00 0.06 0.06 79 1013.1
20260901173527 63 247 0.9 4.3 0.00 0.06 0.06 78 1013.1
20260901173028 63 163 0.9 6.1 0.00 0.06 0.06 78 1013.1
20260901172526 63 317 0.9 7.0 0.00 0.06 0.06 77 1013.0
20260901172026 63 287 1.7 7.0 0.00 0.06 0.06 77 1013.0
20260901171531 63 219 0.9 4.3 0.00 0.06 0.06 77 1013.1
20260901171029 63 84 0.9 4.3 0.00 0.06 0.06 76 1013.0
20260901170524 63 327 0.9 7.8 0.00 0.06 0.06 76 1012.9
20260901170039 63 209 0.9 7.8 0.00 0.06 0.06 75 1012.9
20260901165522 64 293 2.6 9.6 0.00 0.06 0.06 74 1012.8
20260901165022 64 338 1.7 9.6 0.00 0.06 0.06 74 1012.8
20260901164521 65 264 3.5 9.6 0.00 0.06 0.06 73 1012.7
20260901164020 65 115 1.7 9.6 0.00 0.06 0.06 72 1012.7
20260901163520 65 104 0.9 8.7 0.00 0.06 0.06 73 1012.6
20260901163027 66 310 1.7 8.7 0.01 0.06 0.06 72 1012.6
20260901162520 66 17 1.7 7.0 0.01 0.06 0.06 74 1012.5
20260901162024 66 272 1.7 7.0 0.01 0.06 0.06 74 1012.5
20260901161519 65 267 0.9 8.7 0.01 0.06 0.06 75 1012.5
20260901161019 65 263 1.7 10.4 0.01 0.06 0.06 73 1012.5
20260901160518 66 310 0.9 7.8 0.01 0.06 0.06 74 1012.4
20260901160017 66 236 1.7 7.8 0.01 0.06 0.06 74 1012.3
20260901155517 66 121 1.7 7.8 0.01 0.07 0.06 74 1012.3
20260901155017 66 309 0.0 7.8 0.01 0.07 0.06 75 1012.3
20260901154516 66 184 0.9 7.8 0.01 0.07 0.06 74 1012.3
20260901154021 66 270 1.7 6.1 0.01 0.07 0.06 73 1012.3
20260901153517 66 134 0.9 6.1 0.01 0.07 0.06 73 1012.2
20260901153015 67 182 1.7 6.1 0.00 0.06 0.06 72 1012.1
20260901152518 68 332 1.7 5.2 0.00 0.06 0.06 72 1012.1
20260901152018 68 281 1.7 4.3 0.00 0.06 0.06 71 1012.1
20260901151514 69 255 0.9 6.1 0.00 0.06 0.06 70 1012.0
20260901151015 69 203 0.9 6.1 0.00 0.06 0.06 71 1012.0
20260901150513 69 115 1.7 9.6 0.00 0.06 0.06 70 1012.0
20260901150014 69 273 0.9 7.8 0.00 0.06 0.06 71 1012.0
20260901145513 69 154 1.7 7.0 0.00 0.07 0.06 71 1011.9
20260901145012 68 257 1.7 7.8 0.00 0.07 0.06 72 1011.9
20260901144512 68 279 1.7 7.8 0.00 0.07 0.06 72 1011.9
20260901144015 68 263 1.7 7.8 0.01 0.07 0.06 71 1012.0
20260901143514 68 276 2.6 7.8 0.01 0.07 0.06 71 1011.9
20260901143013 68 83 0.9 7.0 0.01 0.07 0.06 71 1011.9
20260901142510 69 257 1.7 7.0 0.01 0.07 0.06 71 1011.9
20260901142010 69 206 0.9 9.6 0.01 0.07 0.06 70 1011.9
20260901141510 69 193 3.5 9.6 0.01 0.07 0.06 69 1011.8
20260901141013 69 291 0.9 6.1 0.01 0.07 0.06 69 1011.8
20260901140509 70 288 1.7 6.1 0.01 0.07 0.06 69 1011.8
20260901140011 70 107 1.7 6.1 0.01 0.07 0.06 69 1011.8
20260901135511 70 315 0.9 6.1 0.01 0.07 0.06 69 1011.7
20260901135009 70 217 1.7 6.1 0.01 0.07 0.06 69 1011.8
20260901134510 69 194 0.0 4.3 0.01 0.07 0.06 70 1011.8
20260901134007 70 59 1.7 6.1 0.00 0.06 0.05 69 1011.7
20260901133507 70 208 0.9 6.1 0.00 0.06 0.05 70 1011.7
20260901133007 70 51 0.0 4.3 0.00 0.06 0.05 69 1011.7
20260901132507 70 289 0.9 4.3 0.00 0.06 0.05 69 1011.7
20260901132009 70 298 1.7 6.1 0.00 0.06 0.05 68 1011.7
20260901131505 70 194 0.9 6.1 0.00 0.06 0.05 70 1011.7
20260901131009 69 205 0.9 5.2 0.00 0.06 0.05 70 1011.5
20260901130506 69 130 1.7 7.0 0.00 0.06 0.05 70 1011.6
20260901130007 69 316 2.6 7.0 0.00 0.06 0.05 69 1011.6
20260901125504 69 290 1.7 4.3 0.00 0.06 0.05 69 1011.5
20260901125004 70 289 1.7 6.1 0.00 0.06 0.05 69 1011.6
20260901124505 70 219 0.9 6.1 0.00 0.06 0.05 68 1011.5
20260901124003 70 50 0.9 4.3 0.00 0.06 0.05 70 1011.5
20260901123503 69 271 1.7 7.0 0.00 0.06 0.05 69 1011.5
20260901123003 69 275 0.9 7.8 0.00 0.06 0.05 69 1011.5
20260901122504 69 281 1.7 7.8 0.00 0.06 0.05 69 1011.6
20260901122002 70 86 1.7 7.8 0.01 0.06 0.05 69 1011.6
20260901121501 70 307 1.7 7.8 0.01 0.06 0.05 68 1011.5
20260901121003 70 167 1.7 7.0 0.01 0.06 0.05 66 1011.5
20260901120601 70 250 1.7 7.0 0.01 0.06 0.05 68 1011.5
20260901120503 70 247 0.9 7.0 0.01 0.06 0.05 69 1011.5
20260901120108 70 167 2.6 7.8 0.01 0.06 0.05 67 1011.5
20260901115557 70 271 0.9 5.2 0.01 0.07 0.05 72 1011.5
20260901115101 69 301 2.6 6.1 0.01 0.07 0.05 70 1011.5
20260901114601 69 293 0.9 6.1 0.01 0.07 0.05 73 1011.5
20260901114057 68 256 1.7 6.1 0.01 0.07 0.05 73 1011.5
20260901113554 68 209 2.6 6.1 0.01 0.07 0.05 74 1011.5
20260901113052 68 248 1.7 6.1 0.01 0.07 0.05 73 1011.6
20260901112550 68 310 0.9 7.0 0.01 0.07 0.05 77 1011.5
20260901112053 68 216 1.7 7.0 0.00 0.06 0.04 77 1011.6
20260901111556 67 215 2.6 5.2 0.00 0.06 0.04 79 1011.6
20260901111049 67 286 0.9 5.2 0.00 0.06 0.04 79 1011.6
20260901110548 67 276 0.9 6.1 0.00 0.06 0.04 78 1011.6
20260901110051 67 246 2.6 6.1 0.01 0.06 0.04 79 1011.5
20260901105548 67 190 2.6 5.2 0.01 0.07 0.04 78 1011.5
20260901105046 67 219 1.7 4.3 0.01 0.07 0.04 77 1011.4
20260901104546 67 178 1.7 4.3 0.01 0.07 0.04 79 1011.4
20260901104049 67 199 1.7 7.8 0.01 0.07 0.04 81 1011.3
20260901103544 66 318 1.7 7.8 0.01 0.07 0.04 80 1011.4
20260901103051 66 204 1.7 6.1 0.01 0.07 0.04 80 1011.3
20260901102542 66 232 2.6 6.1 0.01 0.07 0.04 80 1011.3
20260901102042 66 121 1.7 7.8 0.01 0.07 0.04 80 1011.4
20260901101541 66 288 2.6 7.0 0.01 0.07 0.04 80 1011.3
20260901101041 66 195 1.7 6.1 0.01 0.07 0.04 81 1011.3
20260901100541 66 180 2.6 10.4 0.00 0.06 0.03 80 1011.2
20260901100039 66 274 3.5 10.4 0.00 0.06 0.03 80 1011.2
20260901095538 65 313 2.6 7.8 0.00 0.06 0.03 82 1011.2
20260901095036 65 280 2.6 6.1 0.00 0.06 0.03 82 1011.1
20260901094536 65 206 1.7 6.1 0.00 0.06 0.03 84 1011.1
20260901094035 65 161 1.7 7.8 0.00 0.06 0.03 83 1011.2
20260901093633 65 267 2.6 7.8 0.00 0.06 0.03 83 1011.1
20260901093033 65 201 2.6 9.6 0.00 0.06 0.03 83 1011.1
20260901092533 64 228 3.5 9.6 0.00 0.06 0.03 84 1011.2
20260901092032 64 286 2.6 8.7 0.00 0.06 0.03 85 1011.1
20260901091529 64 284 2.6 8.7 0.00 0.06 0.03 85 1011.2
20260901091028 64 166 0.9 8.7 0.00 0.06 0.03 85 1011.1
20260901090528 63 274 2.6 8.7 0.00 0.06 0.03 87 1011.1
20260901090026 63 278 0.9 9.6 0.01 0.06 0.03 88 1010.9
20260901085524 62 281 0.9 9.6 0.01 0.07 0.03 89 1011.0
20260901085024 62 168 1.7 6.1 0.01 0.07 0.03 89 1010.9
20260901084523 62 268 1.7 7.8 0.01 0.07 0.03 90 1010.9
20260901084021 62 223 1.7 7.8 0.01 0.07 0.03 90 1010.9
20260901083522 62 215 0.9 5.2 0.01 0.07 0.03 90 1010.8
20260901083021 62 270 0.9 9.6 0.01 0.07 0.03 90 1010.8
20260901082520 63 275 2.6 9.6 0.01 0.07 0.03 90 1010.7
20260901082022 63 297 0.9 6.1 0.01 0.07 0.03 91 1010.6
20260901081518 63 325 1.7 5.2 0.01 0.07 0.03 91 1010.6
20260901081018 63 207 2.6 7.8 0.01 0.07 0.03 92 1010.5
20260901080517 63 273 1.7 5.2 0.01 0.07 0.03 94 1010.5
20260901080016 63 202 0.9 4.3 0.00 0.06 0.02 95 1010.4
20260901075515 62 277 0.9 4.3 0.00 0.07 0.02 96 1010.3
20260901075018 61 295 0.9 6.1 0.00 0.07 0.02 96 1010.3
20260901074511 61 198 1.7 6.1 0.00 0.07 0.02 97 1010.3
20260901074015 61 302 1.7 8.7 0.00 0.07 0.02 97 1010.2
20260901073511 60 300 3.5 8.7 0.00 0.07 0.02 97 1010.3
20260901073010 60 164 1.7 4.3 0.00 0.07 0.02 98 1010.3
20260901072510 61 223 1.7 3.5 0.00 0.07 0.02 98 1010.3
20260901072008 60 78 0.9 7.0 0.00 0.07 0.02 98 1010.2
20260901071508 60 279 2.6 7.0 0.01 0.07 0.02 98 1010.2
20260901071007 60 197 0.9 3.5 0.01 0.07 0.02 98 1010.1
20260901070506 60 202 0.9 6.1 0.01 0.07 0.02 98 1010.1
20260901070008 60 300 0.9 6.1 0.01 0.07 0.02 98 1010.0
20260901065506 60 311 0.9 4.3 0.01 0.07 0.02 98 1010.0